Back to catalog

COSMOS 2251 DEB

AliveLEO
NORAD 36074·DEBRIS·🇷🇺 Russia

Launched Jun 16, 1993 from Plesetsk Cosmodrome

Loading…

Next Passes (next 24 hours)

TLE

AgingSource: Space-Track

Epoch: Sep 11, 2026, 06:02 UTC

1 36074U 93036AYM 26254.25208185  .00001843  00000-0  52523-3 0  9997
2 36074  73.9912 191.6842 0045298 222.5738 137.1905 14.45372381898459

Track COSMOS 2251 DEB in real time with AllMySat

Download on the App Store